Torna al catalogo

STARLINK-32267

AttivoComunicazioniVLEO
NORAD 60363·PAYLOAD·🇺🇸 United States

Lanciato Aug 4, 2024 da Vandenberg Space Force Base

Loading…

Prossimi Passaggi (prossime 24 ore)

TLE

AggiornatoSource: CelesTrak SupGP

Epoca: Sep 14, 2026, 21:38 UTC

1 60363C 24138J   26257.90187500 -.00065811  00000+0 -19438-2 0  2574
2 60363  53.1573 149.7284 0001163  97.1014 168.3516 15.34434072    16

Traccia STARLINK-32267 in tempo reale con AllMySat

Download on the App Store